Lid_Strength_Index
11 14 17 14 14 14 15 15 16 14 13 13 16 15 13 13 13 14 13 13 12 11 9 9 9 8 8 8 8 8 7 7 7 7 7 7 8 7 7 7 7 7 7 6
14 15 13 12 13 14 15 16 15 13 13 14 16 16 14 14 14 14 13 13 12 11 10 8 8 9 9 9 8 8 7 6 6 7 7 7 7 7 7 7 7 7 6 6
14 13 11 12 13 14 15 16 16 14 13 14 16 18 16 15 14 14 13 13 12 10 9 9 9 9 9 9 9 8 7 7 6 6 6 6 6 7 7 7 7 7 6 6
12 12 12 13 13 13 16 14 13 14 16 20 15 21 19 16 17 16 15 15 12 12 11 11 11 11 11 11 9 9 9 8 7 7 7 8 8 8 7 7 7 7 6 6
14 13 13 13 11 12 13 12 12 13 15 17 17 19 19 16 17 17 15 14 13 13 13 13 13 12 13 12 12 11 11 10 9 8 7 6 6 7 6 6 5 5 6 6
13 11 11 12 11 11 11 11 11 13 15 21 17 18 18 18 16 16 15 15 15 15 14 14 13 13 14 14 13 13 12 11 10 9 8 7 6 6 6 6 6 5 4 4
15 14 12 12 13 11 11 13 18 19 19 20 17 17 19 16 15 15 16 16 16 16 15 15 16 16 15 15 14 14 13 13 12 11 11 10 9 7 7 6 6 6 6 5
17 19 14 12 13 14 13 14 17 22 21 19 17 18 18 16 15 15 15 16 17 17 17 16 15 15 15 15 15 14 14 14 13 13 13 12 11 10 10 10 9 8 7 6
16 18 13 12 12 12 14 16 13 17 20 19 18 19 16 16 17 16 17 17 18 17 17 16 15 15 15 15 15 15 14 14 14 14 14 14 13 12 12 12 11 10 10 8
13 18 15 13 12 13 14 11 16 17 22 22 20 19 18 18 18 17 18 18 17 17 17 16 16 16 15 15 15 15 15 15 15 14 14 14 14 13 13 13 13 12 11 11
10 14 16 14 15 15 14 15 15 14 17 19 20 19 16 16 16 17 17 17 17 17 17 17 17 17 16 16 17 17 17 17 17 16 16 16 15 15 15 15 14 13 12 12
10 13 17 16 14 13 13 14 14 16 18 18 18 19 16 15 16 16 17 17 17 17 18 18 18 19 18 18 18 18 18 18 17 17 17 17 16 16 16 16 16 15 14 13
10 15 19 18 16 14 15 14 14 15 16 18 19 19 16 16 17 17 17 16 16 17 17 18 18 18 18 18 18 18 18 17 17 17 17 18 18 17 17 16 16 16 16 15
8 13 15 18 17 15 16 14 13 14 18 18 18 20 18 18 18 17 17 17 17 18 18 19 20 20 20 19 20 19 19 19 18 19 19 19 19 19 18 18 17 17 17 17
12 15 14 13 13 13 14 14 14 15 15 16 16 16 16 16 16 15 15 16 17 18 19 20 20 20 20 20 20 20 20 19 19 20 20 20 19 19 19 19 19 18 18 18
12 15 15 17 13 14 15 14 14 14 15 16 16 16 14 14 15 16 17 18 19 19 20 20 20 20 20 20 20 20 20 20 19 20 21 20 20 20 20 19 19 19 19 19
14 15 15 18 15 16 18 16 15 15 16 15 18 16 16 17 17 17 17 18 19 19 19 20 20 20 20 20 19 20 20 19 20 20 20 21 20 20 20 19 19 19 19 19
14 15 17 19 17 20 17 17 16 16 18 17 17 17 16 16 17 17 17 18 19 19 19 20 20 20 20 20 19 19 19 20 20 20 20 20 20 20 20 19 19 19 19 19
14 14 19 19 19 19 18 17 16 15 16 16 17 17 17 17 17 18 17 17 18 18 18 19 19 19 20 19 19 18 19 20 20 21 21 21 20 20 19 19 19 19 19 18
14 16 18 23 22 23 18 17 16 15 19 15 16 16 17 16 18 18 16 17 17 17 17 18 18 18 19 19 18 19 20 21 21 21 20 20 19 19 19 19 19 18 18 17
18 19 21 26 25 22 17 16 15 19 16 14 14 15 15 15 16 16 16 17 16 17 17 18 19 19 19 19 18 19 20 21 20 20 20 20 19 19 18 18 18 17 17 17
20 21 21 25 25 22 15 16 16 16 15 13 14 14 14 16 16 16 16 17 17 18 18 18 19 19 18 18 18 19 20 20 20 21 20 20 20 19 18 19 18 18 18 18
21 19 19 17 17 18 14 15 15 15 15 14 13 13 15 15 15 16 17 17 17 18 17 17 18 18 18 18 18 19 20 20 22 22 22 21 20 20 20 20 20 20 19 19
22 23 20 18 20 19 18 16 15 14 14 14 13 14 14 15 15 16 16 16 16 17 17 18 18 19 19 19 19 20 21 22 24 24 23 21 22 22 21 20 20 20 20 20
19 18 20 20 18 17 19 16 14 14 14 14 14 14 14 15 15 15 16 16 16 17 17 18 18 18 19 20 21 22 22 24 24 23 23 23 23 23 22 21 21 21 20 19
18 18 18 18 16 15 14 13 14 14 15 14 15 16 15 14 15 16 16 16 16 17 18 19 19 20 21 22 23 25 28 26 27 25 24 24 24 24 23 23 23 20 18 17